Regional Weather Roundup
Issued by NWS

Home | Current Version | Previous Version | Text Only | Print | Product List | Glossary On
Versions: 1 2 3 4 5 6 7 8 9 10 11 12 13 14 15 16 17 18 19 20 21 22 23 24 25 26 27 28 29 30 31 32 33 34 35 36 37 38 39 40 41 42 43 44 45 46 47 48 49 50
000
ASUS44 KJAN 280910
RWRMS

MISSISSIPPI HOURLY WEATHER ROUNDUP
NATIONAL WEATHER SERVICE JACKSON MS
400 AM CDT FRI JUL 28 2017

NOTE: "FAIR: INDICATES FEW OR NO CLOUDS BELOW 12,000 FEET WITH NO
SIGNIFICANT WEATHER AND/OR OBSTRUCTIONS TO VISIBILITY.

MSZ001>002-007>008-010>013-018>021-025>028-034>036-281000-
NORTHWEST MISSISSIPPI

CITY           SKY/WX    TMP DP  RH WIND       PRES   REMARKS
BATESVILLE     FAIR      80  74  80 SW8       29.88F
CLARKSDALE       N/A     81  81 100 S7        29.87F HX  91
CLEVELAND      CLOUDY    78  78 100 SW6       29.88F
GREENWOOD      CLOUDY    77  75  93 S5        29.89F
GREENVILLE     CLOUDY    80  73  79 SW6       29.89S
OXFORD         FAIR      77  73  88 SW6       29.90F
TUNICA           N/A     79  75  89 S7        29.87S
WINONA         FAIR      78  74  89 S3        29.90F
$$

MSZ003>006-009-014>017-022>024-029>033-037>039-281000-
NORTHEAST MISSISSIPPI

CITY           SKY/WX    TMP DP  RH WIND       PRES   REMARKS
COLUMBUS AFB   CLOUDY    79  76  89 S3        29.88F
CORINTH        CLOUDY    77  75  94 S6        29.87S
GOLDN TRIANGLE PTCLDY    81  70  69 SW6         N/A
STARKVILLE     FAIR      77  72  83 CALM      29.92S
TUPELO         CLOUDY    80  72  76 SW3       29.89S
$$

MSZ040-058-281000-
CENTRAL MISSISSIPPI

CITY           SKY/WX    TMP DP  RH WIND       PRES   REMARKS
JACKSON INTL   CLEAR     76  71  85 CALM      29.93F
JACKSON HAWKNS PTCLDY    78  72  81 SW5       29.93F
MADISON        FAIR      77  70  78 SW3       29.93S
MERIDIAN KEY   CLEAR     74  73  97 CALM      29.93F
MERIDIAN NAS   CLEAR     76  69  79 W3        29.93S
RAYMOND        FAIR      75  72  88 CALM      29.93S
$$

MSZ059>079-281000-
SOUTH MISSISSIPPI

CITY           SKY/WX    TMP DP  RH WIND       PRES   REMARKS
COLUMBIA       FAIR      70  68  94 CALM      29.97S
HATTIESBURG    CLOUDY    73  72  96 CALM      29.95S
LAUREL         FAIR      73  73 100 CALM      29.94S
MCCOMB         CLOUDY    72  68  87 CALM      29.96R
NATCHEZ        CLEAR     76  74  93 S6        29.95F
PINE BELT      PTCLDY    72  71  97 CALM      29.96S FOG
$$

MSZ080>082-281000-
COASTAL MISSISSIPPI

CITY           SKY/WX    TMP DP  RH WIND       PRES   REMARKS
BILOXI         CLEAR     78  74  89 CALM      29.93S
PASCAGOULA     CLEAR     74  72  93 CALM      29.93S
GULFPORT       CLEAR     76  74  93 CALM      29.93S
$$

LAZ007>009-015>016-023>026-281000-
NORTHEAST LOUISIANA

CITY           SKY/WX    TMP DP  RH WIND       PRES   REMARKS
BASTROP        FAIR      78  76  96 SW5       29.92S
TALLULAH/VBURG PTCLDY    75  73  93 CALM      29.92S
VIDALIA        FAIR      73  73 100 SW3       29.94S
$$



USA.gov is the U.S. government's official web portal to all federal, state and local government web resources and services.